Regional Weather Roundup
Issued by NWS

Home | Current Version | Previous Version | Text Only | Print | Product List | Glossary Off
Versions: 1 2 3 4 5 6 7 8 9 10 11 12 13 14 15 16 17 18 19 20 21 22 23 24 25 26 27 28 29 30 31 32 33 34 35 36 37 38 39 40 41 42 43 44 45 46 47 48 49 50

000
ASUS43 KMKX 310210
RWRWI

WISCONSIN REGIONAL WEATHER ROUNDUP
NATIONAL WEATHER SERVICE MILWAUKEE/SULLIVAN WI
800 PM CST FRI JAN 30 2015

NOTE: "FAIR" INDICATES FEW OR NO CLOUDS BELOW 12,000 FEET WITH NO
SIGNIFICANT WEATHER AND/OR OBSTRUCTIONS TO VISIBILITY.

WIZ001-002-006>008-014>016-023>028-310300-
NORTHWEST WISCONSIN

CITY           SKY/WX    TMP DP  RH WIND       PRES   REMARKS
SUPERIOR ARPT  CLOUDY    17   6  64 W3        30.24F
ASHLAND        CLOUDY    18   3  52 S8        30.23F WCI   8
HAYWARD        CLOUDY    16   5  62 S7        30.21F WCI   6
SIREN          CLOUDY    19  10  68 S5        30.24R WCI  12
CUMBERLAND     CLOUDY    16   7  67 S7        30.21F WCI   6
RICE LAKE      CLOUDY    16   7  68 SE10      30.23F WCI   4
CHETEK         CLOUDY    15   6  69 E7        30.24F WCI   5
LADYSMITH      MOCLDY    15   7  71 S6        30.26F WCI   6
EAU CLAIRE     CLOUDY    18   6  59 S3        30.26F
MENOMONIE      CLOUDY    19  10  67 SE6       30.25F WCI  11
NEW RICHMOND   PTCLDY    19  13  76 S6        30.24R WCI  11
OSCEOLA        CLOUDY    22  16  76 SE6       30.27R WCI  15
$$

WIZ003>005-009-010-017-018-310300-
NORTH CENTRAL WISCONSIN

CITY           SKY/WX    TMP DP  RH WIND       PRES   REMARKS
MANITOWISH WTR CLOUDY    15   3  58 SW5       30.20F WCI   8
ARBOR VITAE    CLOUDY    17   6  63 S12       30.20F WCI   4
WOODRUFF       CLOUDY    17   6  63 S12       30.20F WCI   4
RHINELANDER    CLOUDY    13   4  67 SW8       30.23F WCI   2
EAGLE RIVER    MOCLDY    15   3  59 SW6       30.20F WCI   6
LAND O LAKES   CLOUDY    15   6  67 S3        30.20F
PHILLIPS       CLOUDY    13   4  67 S6        30.22F WCI   4
TOMAHAWK       MOCLDY    11   4  73 CALM      30.24F
MEDFORD        MOCLDY    13   5  70 CALM      30.25R
MERRILL        MOCLDY    13   6  72 CALM      30.26F
$$

WIZ029-030-035-036-043>047-310300-
CENTRAL WISCONSIN

CITY           SKY/WX    TMP DP  RH WIND       PRES   REMARKS
WAUSAU         PTCLDY    15   6  67 S9        30.24F WCI   3
MOSINEE        NOT AVBL
MARSHFIELD     PTCLDY    14   3  61 S7        30.27F WCI   4
STEVENS POINT  CLEAR     13   4  69 CALM      30.30F
WAUPACA        MOCLDY    19  10  65 CALM      30.33F
WAUTOMA        PTCLDY    12   5  73 CALM      30.33F
WISC RAPIDS    CLEAR     11   3  70 S3        30.31F
CAMP DOUGLAS   CLEAR     11   6  83 S6        30.32F WCI   1
$$

WIZ011>013-019>022-031-037>040-048>050-310300-
NORTHEAST WISCONSIN

CITY           SKY/WX    TMP DP  RH WIND       PRES   REMARKS
ANTIGO         MOCLDY    13   6  74 S6        30.24F WCI   3
SHAWANO        PTCLDY    20   7  57 CALM      30.32F
OCONTO         PTCLDY    16   7  67 CALM      30.33F
STURGEON BAY   MOCLDY    16   7  67 S5        30.35F WCI   9
GREEN BAY      CLOUDY    19  11  70 S5        30.34F WCI  12
MANITOWOC      CLOUDY    20  12  71 S3        30.36F
APPLETON       CLOUDY    19   9  63 SW7       30.33F WCI  10
CLINTONVILLE   PTCLDY    19   7  58 CALM      30.33S
OSHKOSH        PTCLDY    18   9  68 S6        30.34F WCI  10
$$

WIZ032>034-041-042-053>061-310300-
SOUTHWEST WISCONSIN

CITY           SKY/WX    TMP DP  RH WIND       PRES   REMARKS
LA CROSSE      CLEAR     21  10  62 SE9       30.32F WCI  11
SPARTA         CLEAR     10   6  83 CALM      30.32F
VIROQUA        MOCLDY    20  10  65 S7        30.30F WCI  11
BOSCOBEL       CLEAR     16   7  67 CALM      30.36F
PRAIRIE DU CHI PTCLDY    22  10  59 CALM      30.35F
PLATTEVILLE    CLEAR     20  14  75 SE8       30.34F WCI  11
$$

WIZ056-057-062-063-064-067-068-310300-
SOUTH CENTRAL WISCONSIN

CITY           SKY/WX    TMP DP  RH WIND       PRES   REMARKS
REEDSBURG      CLEAR     19   8  63 CALM      30.34S
BARABOO/DELLS  PTCLDY    16   7  67 CALM      30.34F
LONE ROCK      CLEAR     14   8  77 E3        30.36F
MINERAL POINT  CLEAR     21  12  68 S3        30.32F
MADISON        FAIR      20   9  62 CALM      30.36F
MIDDLETON      FAIR      20  10  63 CALM      30.36F
WATERTOWN      PTCLDY    18  10  70 S3        30.36F
MONROE         CLEAR     19  14  79 SW8       30.35F WCI   9
JANESVILLE     CLEAR     21  12  68 S7        30.38F WCI  13
$$

WIZ051-052-058>065-066-070>072-310300-
SOUTHEAST WISCONSIN

CITY           SKY/WX    TMP DP  RH WIND       PRES   REMARKS
MILWAUKEE      MOCLDY    23   9  55 SW5       30.39F WCI  17
WAUKESHA       CLOUDY    19   9  63 CALM      30.38F
MILWAUKEE/TIMM CLOUDY    21   9  58 SW6       30.39F WCI  14
RACINE         PTCLDY    23  10  57 SW5       30.41F WCI  17
BURLINGTON     CLEAR     14   9  82 S3        30.38F
KENOSHA        CLOUDY    22  11  62 SW5       30.39F WCI  16
FOND DU LAC    PTCLDY    18   8  65 S6        30.34F WCI  10
SHEBOYGAN      PTCLDY    19  11  70 S5        30.36F WCI  12
WEST BEND      MOCLDY    19   9  63 S3        30.35F
JUNEAU         CLEAR     18  10  70 S7        30.35F WCI   8
$$

LSZ147-162-310300-
LAKE SUPERIOR

STATION/POSITION TIME  TEMP    WIND        PRES    WAVE
                       AIR SEA DIR/SP/G            HT/PER
                 (UTC) (F)     (DEG/KT/KT) (MB)    (FT/S)
DEVILS ISLAND    0200   19     220/ 10/ 14 1024.9F
PORT WING        0140   18     210/  7/  9 1024.4S
SAXON HARBOR     0100   20     190/  4/  8 1024.0F
$$

LMZ867-665-643>646-310300-
LAKE MICHIGAN

STATION/POSITION TIME  TEMP    WIND        PRES    WAVE
                       AIR SEA DIR/SP/G            HT/PER
                 (UTC) (F)     (DEG/KT/KT) (MB)    (FT/S)
NORTHPORT PIER   0115   17      CALM  /  5 1027.4F
SISTER BAY       0143   16        CALM       N/A
KEWAUNEE LAKESHO 0100   19     210/  5/  7 1027.4F
SHEBOYGAN LAKESH 0200   23     210/  7/  9 1029.6F
PORT WASHINGTON  0100   24     280/  3/  5 1029.8
MILWAUKEE LAKESH 0100   25     240/  8/ 11   N/A
KENOSHA   LAKESH 0200   24     230/  3/  7 1029.5F
$$

TC  - TEMPERATURE IN CELSIUS
VSB - VISIBILITY IN STATUTE MILES
WCI - WIND CHILL INDEX
HX  - HEAT INDEX



USA.gov is the U.S. government's official web portal to all federal, state and local government web resources and services.